RH
35 33 32 31 29 28 27 26 26 26 26 25 25 25 27 30 30 30 30 29 27 26 28 31 32 31 30 30 31 32 32 30 29 30 32 33 34 35 35 34 33 32 31 27 23 23 23 24 28 36 39 41 41 43 59 77 84 90 94 92 88 83 77 70 63 61 61 58 54 46 38 37 39 38 40 43 43 42 42 40 40 41 40 40 42
36 35 34 33 31 30 29 28 27 27 27 26 25 28 33 36 35 33 32 31 30 28 28 32 35 35 35 34 35 35 35 35 34 33 32 32 34 35 36 37 36 35 34 32 28 25 24 22 24 33 40 43 39 36 46 64 77 86 92 93 90 86 82 76 68 67 67 63 62 58 46 39 39 39 40 44 45 45 45 44 44 44 44 44 45
38 37 36 34 33 32 31 30 29 29 28 27 28 33 37 38 37 34 32 31 30 29 29 31 34 37 38 38 37 37 36 37 37 36 34 33 33 35 36 38 38 39 38 36 33 30 26 25 24 27 35 43 45 41 40 50 65 77 85 91 91 87 85 81 74 70 71 66 63 62 54 45 42 42 42 43 44 44 45 46 47 49 49 49 48
40 39 38 36 35 34 33 32 32 31 30 31 35 39 39 38 36 33 32 31 31 31 30 31 33 35 38 40 39 39 38 37 37 37 37 35 34 34 36 38 39 40 41 40 37 34 29 27 25 27 34 40 44 49 47 44 54 70 77 82 87 87 86 85 78 72 71 71 69 66 60 51 45 44 44 44 44 44 44 46 49 52 53 53 52
41 40 38 37 36 35 35 35 34 33 34 37 41 41 39 38 35 33 33 33 32 32 32 31 32 33 34 37 39 39 38 38 37 38 38 37 36 34 34 37 38 39 41 41 40 38 35 30 25 26 33 33 35 50 55 47 50 64 71 73 79 84 85 85 81 75 73 75 75 71 65 56 49 47 46 46 48 46 45 47 50 54 56 56 56
40 39 37 36 36 36 37 37 37 37 40 42 42 41 39 37 35 34 36 35 34 34 33 32 31 31 32 33 36 37 37 37 36 36 37 37 37 35 33 34 36 38 39 40 41 41 39 36 29 26 30 29 29 42 55 56 56 57 62 69 74 79 84 84 80 78 77 76 76 75 72 62 54 51 49 50 52 50 48 50 54 57 59 59 58
39 37 36 36 36 37 38 39 40 42 45 45 43 41 39 36 36 38 38 37 36 35 33 34 33 33 33 32 33 34 35 36 35 35 37 37 37 37 34 32 33 35 37 38 40 41 40 39 34 28 26 26 27 33 45 61 64 53 50 63 72 75 80 85 83 81 79 77 76 78 77 68 57 53 52 53 53 51 51 56 60 61 61 58 55
38 36 36 37 38 39 41 42 43 45 46 45 43 40 38 37 38 39 39 37 36 35 34 35 36 37 37 36 34 34 34 34 35 35 36 37 38 38 36 34 32 33 35 37 39 40 41 41 38 31 24 22 26 29 32 47 62 57 48 56 68 73 76 84 88 84 79 77 78 80 78 71 62 58 56 55 54 52 54 60 64 62 58 54 53
37 37 38 40 41 42 43 44 46 47 47 46 43 40 38 39 40 40 40 38 36 36 37 37 39 40 40 39 38 37 36 35 34 34 35 36 38 39 38 37 34 33 35 38 40 40 41 42 41 35 26 22 26 29 27 34 55 66 57 52 63 74 73 78 85 85 80 79 80 82 78 70 64 60 58 56 54 53 56 62 63 59 55 54 55
38 40 41 42 42 42 44 47 47 47 48 46 43 40 39 40 42 42 41 40 40 40 40 41 43 43 43 43 42 41 40 38 35 35 34 34 36 39 40 39 37 35 36 38 42 42 42 45 44 39 30 23 24 28 26 24 38 59 63 54 59 73 74 73 79 84 84 82 81 81 78 72 67 61 57 56 56 55 57 60 60 58 56 57 59
40 42 43 43 42 42 45 48 49 48 47 45 42 41 42 43 44 44 44 43 44 44 45 45 45 46 46 45 45 45 43 40 39 39 38 37 36 36 39 40 39 38 37 40 44 45 46 49 49 45 36 27 24 26 26 23 25 43 61 61 60 69 74 73 77 84 87 86 84 83 78 74 72 67 62 61 60 59 59 59 58 58 59 62 66
40 41 42 42 43 45 47 48 49 49 46 43 42 42 45 46 46 46 47 46 47 47 47 47 48 49 49 48 47 47 46 43 42 41 41 42 41 39 37 37 39 40 38 41 45 47 48 51 51 49 42 33 27 25 25 27 25 32 52 64 65 69 74 77 83 90 92 89 86 84 79 76 77 74 70 70 68 65 64 63 60 60 64 68 72
40 41 41 43 44 46 47 47 48 47 44 43 44 45 46 48 47 47 47 47 47 48 49 51 52 52 51 49 48 48 47 47 46 44 43 43 45 44 40 36 36 39 39 41 46 48 48 50 50 49 46 38 32 29 25 25 27 31 45 62 68 69 75 86 95 96 94 91 86 82 78 76 76 74 74 78 80 78 75 72 69 69 71 74 75
42 42 42 43 45 46 46 46 45 45 45 46 47 47 47 48 48 47 47 48 49 50 52 55 55 55 53 51 49 48 48 49 49 48 46 44 45 46 43 37 35 38 40 41 45 48 48 49 48 47 47 43 39 35 30 26 27 30 40 56 65 65 73 91 100 97 95 94 86 80 78 76 73 72 77 83 85 85 82 78 76 76 77 78 80
44 44 43 44 46 46 46 44 44 46 49 49 48 47 48 49 50 51 52 54 56 56 58 58 58 57 55 53 50 48 49 50 51 51 48 45 45 45 44 40 35 36 40 41 43 47 48 49 47 46 47 47 44 40 34 30 28 27 34 51 64 68 76 92 99 97 96 94 87 82 81 80 76 76 81 83 83 86 86 81 79 82 83 84 84
46 46 45 45 47 47 44 43 45 50 51 48 46 47 50 53 56 59 60 61 62 63 62 61 59 57 54 52 51 48 49 51 53 53 50 47 45 44 43 41 37 36 40 42 42 45 47 49 49 47 47 50 49 44 38 35 33 30 33 49 64 71 80 92 98 97 95 92 88 85 84 82 82 86 88 85 84 89 89 84 82 84 86 87 86
46 46 46 46 47 46 44 44 48 51 48 45 47 51 55 58 60 62 62 62 63 63 61 58 55 54 52 52 52 51 50 52 53 54 50 46 44 44 43 41 39 37 40 43 43 44 47 50 52 52 49 50 52 49 42 37 34 31 33 47 61 69 76 87 95 98 97 94 89 87 84 82 85 92 94 91 90 92 91 88 85 85 88 89 89
46 46 46 47 48 46 45 48 50 49 47 47 51 54 58 59 60 62 63 63 63 61 58 56 54 54 54 53 54 54 51 51 53 53 50 45 43 44 43 42 40 39 40 42 43 46 49 52 55 56 54 52 54 52 43 36 33 31 32 41 55 64 70 79 88 94 96 94 90 89 86 82 87 95 97 94 93 93 92 89 85 85 90 92 92
46 45 45 48 49 48 49 51 51 49 49 52 54 55 57 60 62 64 66 65 65 63 61 59 58 60 60 57 56 55 52 50 50 51 51 47 43 42 44 43 40 39 39 40 43 47 50 54 57 59 58 57 55 52 45 37 32 30 31 38 49 58 63 69 78 85 88 86 89 91 85 81 88 96 97 95 94 92 91 89 85 86 92 93 94
46 45 46 49 51 51 53 53 52 52 52 52 53 56 60 64 68 69 69 68 68 67 67 68 68 69 68 63 59 57 54 51 49 49 50 49 45 43 44 43 40 40 39 39 42 48 52 55 59 60 60 60 59 54 47 38 32 30 30 37 47 56 60 64 73 82 86 87 90 90 82 81 90 94 93 94 92 89 89 88 86 88 91 93 95
46 46 49 52 53 55 55 54 53 51 51 52 56 60 65 71 74 74 73 71 72 74 77 78 77 76 74 71 66 62 59 56 53 51 51 50 49 48 48 45 43 42 41 40 44 50 53 55 58 60 59 60 62 60 52 42 36 32 30 37 48 56 60 64 72 82 90 93 93 87 80 82 91 93 92 91 88 85 84 85 87 90 91 92 92
47 50 53 55 56 57 55 53 49 47 47 53 60 64 68 74 78 78 76 75 76 81 83 83 81 79 77 75 71 67 66 65 61 58 56 54 55 56 55 52 48 46 45 47 50 54 56 57 58 59 60 61 64 65 60 49 41 35 33 39 51 58 60 66 73 83 92 97 92 85 82 85 90 92 91 88 84 81 79 79 85 89 89 88 85
50 55 57 57 59 57 52 48 44 43 47 56 63 67 72 77 81 80 78 78 81 85 86 86 85 83 80 77 75 72 71 70 70 68 65 63 62 63 63 60 56 53 52 55 58 59 60 60 60 61 64 67 68 68 63 53 44 39 38 43 53 60 62 68 76 86 94 97 91 85 85 89 93 94 91 86 82 79 78 78 83 88 85 82 76
55 59 59 59 58 54 49 45 42 43 50 58 64 70 76 81 83 81 79 81 85 89 89 88 87 86 82 80 79 78 77 77 76 76 73 71 68 67 66 65 62 60 59 61 62 62 62 62 63 65 68 71 70 69 64 55 46 44 43 45 54 61 63 69 78 85 91 94 89 86 87 91 95 95 91 86 84 84 84 85 86 84 78 73 68
60 61 61 59 55 50 46 42 42 47 52 59 66 73 78 82 83 81 82 84 89 92 92 89 87 86 84 83 83 84 84 84 84 83 81 79 76 72 70 69 67 65 64 63 63 63 63 64 65 67 70 72 72 69 65 57 49 45 44 46 54 61 65 70 76 84 92 93 87 86 89 92 94 93 89 87 87 88 88 88 84 77 71 66 63
62 62 60 57 51 47 44 42 44 50 54 59 67 74 78 82 83 83 84 87 91 94 95 92 89 88 88 86 85 85 87 87 89 90 90 89 86 82 79 76 73 70 68 67 67 67 67 67 67 67 70 73 72 69 66 59 50 44 44 47 54 62 67 68 71 82 94 93 86 86 91 93 91 90 88 90 91 89 85 80 74 67 64 63 62
63 61 57 54 50 45 44 44 48 51 54 60 68 74 78 83 86 85 87 90 93 96 96 95 93 91 91 88 86 86 87 87 90 94 97 96 95 92 89 85 81 77 75 75 74 73 73 73 73 72 72 73 70 68 66 59 48 43 44 47 53 63 66 66 71 85 96 93 88 89 91 90 89 89 90 91 88 82 74 67 64 63 63 62 62
62 58 54 53 50 45 44 48 51 53 55 62 68 73 77 84 88 88 89 92 94 95 95 96 95 93 93 93 92 92 94 92 93 96 100 101 99 98 96 93 89 86 83 81 80 79 78 78 76 74 72 71 68 67 63 55 46 43 43 45 55 65 67 69 80 93 97 93 90 91 91 90 90 89 88 85 78 71 65 63 62 65 65 63 62
61 57 56 54 49 45 47 49 51 52 55 61 68 73 77 83 88 91 92 93 94 95 95 96 97 97 97 98 98 98 98 98 97 99 101 100 100 100 100 97 94 90 86 84 84 83 80 78 77 75 72 69 67 65 60 53 51 51 48 49 58 66 70 77 88 96 96 93 91 93 92 91 89 86 82 75 68 64 64 66 67 67 65 63 61
60 58 58 53 46 45 47 48 48 50 53 58 66 72 78 82 88 92 95 94 95 97 97 97 98 97 96 97 98 98 99 99 99 99 99 99 100 100 99 97 94 91 88 86 87 85 82 80 78 74 71 69 68 65 60 56 57 59 58 59 61 65 74 83 89 90 92 93 92 93 93 89 86 83 77 69 65 65 68 69 68 66 64 62 60
62 62 59 52 46 45 47 48 47 48 50 54 61 71 79 85 89 93 95 95 96 97 98 98 97 96 96 96 97 97 98 99 100 97 96 97 99 101 100 98 95 92 90 89 88 86 83 79 75 71 69 69 68 66 61 59 58 59 61 65 64 65 75 83 82 84 90 92 91 92 90 85 81 77 72 69 69 70 70 70 67 66 63 61 60
65 65 61 53 48 46 47 48 47 47 48 52 57 66 77 86 91 93 94 95 97 97 98 98 99 98 98 97 96 97 98 99 99 97 96 96 98 99 99 97 93 91 90 88 85 82 77 72 69 66 65 65 66 62 57 57 59 60 63 66 64 64 73 80 83 87 92 91 90 90 86 80 77 74 72 73 73 71 70 69 67 65 64 63 62
68 67 62 54 49 47 47 48 48 46 45 48 53 61 72 84 92 96 96 96 96 97 98 100 100 99 98 97 96 97 99 99 99 99 99 99 98 97 95 91 88 88 88 85 81 77 74 71 69 66 64 68 74 71 61 57 62 66 68 70 70 70 74 81 88 92 93 91 90 87 81 76 76 75 74 74 73 71 69 67 65 65 65 64 61
70 68 62 55 50 48 46 47 48 47 44 45 50 56 66 79 89 95 97 97 97 96 98 99 99 98 99 99 98 98 99 100 100 100 99 99 98 95 90 86 84 85 86 83 78 73 74 78 77 71 68 75 83 83 76 70 70 73 75 76 77 76 77 83 90 93 92 88 85 80 77 76 76 75 74 74 72 70 67 65 66 66 64 60 55
73 71 65 57 51 48 45 45 46 46 44 42 44 49 61 73 83 91 96 98 98 97 98 98 98 98 99 100 99 99 99 99 99 97 95 93 90 87 85 83 80 80 80 79 73 69 76 87 88 77 72 79 86 88 87 83 80 80 81 77 76 78 82 88 93 91 85 81 78 75 75 76 75 74 74 73 71 69 67 67 67 64 60 56 53
75 73 68 61 54 49 46 45 45 44 41 38 40 45 55 65 75 85 94 98 99 99 99 99 99 99 99 100 100 99 97 96 95 93 89 86 83 82 83 84 82 79 76 71 66 64 71 84 90 83 78 82 89 91 91 89 88 87 86 83 83 88 90 90 87 82 78 77 76 76 77 76 75 75 74 72 70 69 67 67 65 62 57 53 49
77 76 72 66 60 54 49 46 45 42 39 38 39 43 50 59 68 78 89 95 98 99 99 99 98 98 97 98 98 98 95 95 98 97 92 90 89 86 85 86 83 75 67 63 66 71 74 77 84 85 81 84 93 96 94 93 93 93 92 92 92 91 87 82 79 78 78 78 78 78 78 77 76 76 74 71 70 69 68 67 64 58 53 50 48
78 78 77 72 66 60 55 49 45 43 42 42 41 41 45 53 61 70 80 90 96 98 99 98 97 97 97 98 98 97 94 94 98 99 93 90 89 85 81 80 76 71 70 74 83 92 93 90 92 93 89 88 94 97 95 94 96 96 94 92 90 86 83 80 80 80 80 80 79 79 78 77 76 75 72 71 71 70 68 64 59 55 52 50 50
78 78 80 78 72 65 59 52 46 44 45 44 42 41 43 48 55 63 72 82 90 96 99 98 96 96 99 100 99 98 96 94 97 99 92 84 81 79 76 74 74 78 87 95 98 100 100 99 99 98 94 90 91 94 95 96 95 93 91 89 88 86 85 83 82 81 81 80 80 78 77 76 74 73 72 71 71 68 64 59 55 53 52 51 51
79 78 81 82 77 71 64 56 49 45 45 45 44 42 42 44 49 56 64 73 82 90 96 99 97 96 98 100 99 99 97 94 96 99 93 83 78 78 78 78 81 87 95 100 99 99 99 98 97 98 97 95 94 95 96 95 94 92 91 89 87 86 85 84 83 81 80 78 77 76 76 75 73 72 71 71 69 65 60 56 54 53 52 52 53
81 79 81 84 83 77 69 62 54 46 43 43 45 44 42 43 46 51 56 64 73 82 90 96 98 98 99 100 99 99 97 94 94 98 97 89 83 85 87 86 86 89 93 96 98 99 99 98 98 98 98 97 97 97 96 96 94 92 89 87 85 83 82 81 80 79 78 77 76 76 74 73 72 71 71 69 66 61 57 54 53 53 53 54 55
83 81 83 88 88 81 73 67 60 52 45 42 43 44 42 41 44 48 51 55 63 72 80 88 95 97 98 98 99 98 98 97 96 98 100 97 94 94 95 91 87 87 90 95 98 100 99 99 100 99 98 98 98 97 97 96 94 91 88 86 84 82 82 82 82 81 80 78 76 74 72 72 71 71 69 65 61 57 54 54 53 54 55 55 55
85 84 88 91 90 84 79 74 68 60 50 44 43 44 42 40 41 44 48 51 55 61 68 75 84 91 95 96 97 98 99 99 99 98 99 99 99 98 98 96 93 92 93 96 98 99 100 100 100 99 99 98 97 96 95 93 91 89 87 85 85 85 86 84 83 81 78 76 74 73 72 71 70 69 66 62 57 55 54 54 55 56 56 56 53
87 87 89 90 89 89 86 81 74 66 57 48 45 45 43 40 39 40 43 47 50 55 58 61 67 78 86 91 94 96 97 98 99 99 98 98 98 99 99 98 97 96 96 98 99 99 99 99 99 99 98 97 95 94 92 90 88 87 87 87 88 88 85 81 79 77 77 76 75 75 73 72 70 66 62 59 56 54 54 54 57 58 56 53 50
87 87 88 88 89 91 90 85 79 73 64 54 50 50 46 40 37 37 38 41 46 50 53 53 54 60 70 78 85 90 94 96 97 98 97 97 98 98 98 98 97 97 97 98 99 99 99 99 98 98 97 96 95 93 91 90 89 90 90 90 88 85 82 81 82 82 82 81 79 76 73 70 66 62 58 56 55 54 55 57 58 57 54 51 48
86 87 88 88 90 91 91 88 85 80 72 62 58 55 50 43 38 36 35 35 39 45 49 51 51 52 55 61 69 77 84 88 92 95 96 97 97 97 97 97 97 98 98 98 99 99 98 98 97 97 97 96 95 95 94 94 93 92 90 89 87 87 87 87 87 86 83 80 76 71 67 63 60 57 56 55 55 55 57 58 57 55 51 48 46
80 82 83 86 89 91 91 91 89 84 77 71 66 61 54 48 42 38 35 33 34 38 43 48 51 51 50 51 55 60 67 73 79 84 88 92 94 96 96 97 97 97 97 97 98 99 99 98 98 97 96 96 96 96 95 95 94 93 92 92 91 90 89 87 84 81 78 73 68 65 61 59 58 57 56 55 56 57 58 58 56 52 49 47 45
73 74 75 78 85 88 88 89 90 87 82 80 76 70 62 54 48 43 39 36 34 34 36 40 45 48 49 50 50 50 53 57 62 68 73 78 83 87 90 92 94 94 95 95 95 96 97 98 98 98 97 96 96 96 95 95 96 95 94 93 90 87 83 80 77 73 69 66 63 61 59 58 58 57 56 55 56 57 58 57 54 50 48 45 43
67 68 69 72 78 83 84 85 87 86 85 84 84 81 74 66 58 50 45 41 38 35 34 35 37 41 44 46 47 48 47 47 49 52 56 61 67 72 76 80 83 85 88 90 91 91 91 92 93 95 96 96 96 96 95 95 94 92 90 87 83 79 76 72 69 66 63 61 59 58 57 56 55 54 53 53 54 56 58 57 54 49 46 43 41
60 61 62 63 68 74 77 79 82 82 80 80 84 85 83 79 72 64 56 49 44 40 38 36 35 35 37 39 41 43 45 44 44 43 44 46 51 57 62 67 70 72 75 78 81 83 85 86 86 87 88 89 90 90 89 88 85 83 80 77 74 71 68 64 62 60 59 57 56 56 55 54 53 52 51 51 53 56 57 56 52 47 43 40 40
55 56 57 57 59 63 67 72 76 78 76 75 78 81 83 83 82 78 71 63 55 48 43 41 39 37 35 35 35 37 38 40 41 41 40 40 41 43 48 53 58 62 65 66 68 71 74 76 78 79 79 79 78 78 78 76 74 71 70 68 66 63 60 58 57 56 55 55 55 54 53 52 51 51 51 51 52 53 53 51 47 44 40 39 39